This demonstration page uses our WeatherBlox Daily Observations layout. Learn more.

Left ArrowRight Arrow

Hourly Observations for January 18, 2017

Temp ( °F °C ) Dew Point ( °F °C ) Humidity (%) Winds ( mph kmh ) Pressure ( in mb ) Visibility ( mi km ) Precip ( " mm )
12:20 am 00:20 Cloudy with Mist and Fog 37 3 36 2 93 93 SSW 5 7 30.24 1024 2 2 0.00 0.00
12:38 am 00:38 Cloudy with Mist and Fog 37 3 36 2 93 93 SW 5 7 30.24 1024 3 4 0.00 0.00
12:48 am 00:48 Cloudy with Mist and Fog 37 3 36 2 93 93 SSW 5 7 30.24 1024 2 2 0.00 0.00
12:52 am 00:52 Cloudy with Mist and Fog 37 2.8 36 2.2 96 96 SSW 5 7 30.19 1022 2 2 0.00 0.00
1:28 am 01:28 Cloudy with Mist and Fog 36 2 36 2 100 100 W 3 6 30.24 1024 2 3 0.00 0.00
1:39 am 01:39 Cloudy with Mist and Fog 36 2.2 36 2.2 100 100 Calm 30.21 1023 1 2 0.00 0.00
1:52 am 01:52 Mostly Cloudy with Mist and Fog 37 2.8 36 2.2 96 96 Calm 30.17 1022 1 2 0.00 0.00
2:44 am 02:44 Cloudy with Mist and Fog 36 2 36 2 100 100 Calm 30.24 1024 2 3 0.00 0.00
2:52 am 02:52 Cloudy with Mist and Fog 36 2.2 35 1.7 97 97 Calm 30.19 1022 2 3 0.00 0.00
3:10 am 03:10 Cloudy with Mist and Fog 36 2 36 2 100 100 Calm 30.24 1024 1 2 0.00 0.00
3:52 am 03:52 Mostly Cloudy with Fog 36 2.2 34 1.1 93 93 ENE 3 6 30.18 1022 1 1 0.00 0.00
4:52 am 04:52 Mostly Cloudy with Fog 36 2.2 35 1.7 97 97 S 3 6 30.19 1022 1 1 0.00 0.00
5:22 am 05:22 Cloudy with Mist and Fog 36 2 36 2 100 100 Calm 30.21 1023 2 3 0.00 0.00
5:41 am 05:41 Mostly Cloudy with Fog 36 2.2 35 1.7 97 97 Calm 30.24 1024 1 1 0.00 0.00
5:52 am 05:52 Mostly Cloudy with Fog 36 2.2 35 1.7 97 97 Calm 30.20 1023 1 1 0.00 0.00
6:52 am 06:52 Mostly Cloudy with Fog 36 2.2 35 1.7 97 97 E 7 11 30.22 1023 1 1 0.00 0.00
7:20 am 07:20 Mostly Cloudy with Fog 36 2 36 2 100 100 Calm 30.27 1025 0 0 0.00 0.00
7:52 am 07:52 Mostly Cloudy with Fog 36 2.2 35 1.7 97 97 ESE 6 9 30.21 1023 0 0 0.00 0.00
8:31 am 08:31 Mostly Cloudy with Fog 36 2.2 36 2.2 100 100 E 3 6 30.24 1024 1 1 0.00 0.00
8:52 am 08:52 Cloudy with Mist and Fog 37 2.8 35 1.7 93 93 ESE 7 11 30.20 1023 1 2 0.00 0.00
9:29 am 09:29 Cloudy with Mist and Fog 37 2.8 36 2.2 96 96 E 8 13 30.24 1024 3 5 0.00 0.00
9:52 am 09:52 Cloudy with Mist and Fog 38 3.3 36 2.2 93 93 ESE 5 7 30.19 1023 4 6 0.00 0.00
10:23 am 10:23 Mostly Cloudy 42 5.6 37 2.8 82 82 E 6 9 30.24 1024 7 11 0.00 0.00
10:52 am 10:52 Cloudy 43 6.1 36 2.2 76 76 SSE 5 7 30.18 1022 10 16 0.00 0.00
11:52 am 11:52 Cloudy 46 7.8 36 2.2 68 68 SSE 8 13 30.15 1021 10 16 0.00 0.00
12:52 pm 12:52 Mostly Cloudy 50 10 35 1.7 57 57 SE 8 13 30.11 1020 10 16 0.00 0.00
1:52 pm 13:52 Cloudy 50 10 35 1.7 57 57 SE 8 13 30.07 1018 10 16 0.00 0.00
2:52 pm 14:52 Cloudy 50 10 37 2.8 61 61 SE 9 15 30.05 1018 10 16 0.00 0.00
3:52 pm 15:52 Cloudy 49 9.4 38 3.3 66 66 SSE 9 15 30.05 1018 10 16 0.00 0.00
4:52 pm 16:52 Cloudy 48 8.9 39 3.9 71 71 SE 9 15 30.06 1018 10 16 0.00 0.00
5:52 pm 17:52 Cloudy 47 8.3 39 3.9 74 74 SE 13 20 30.04 1017 10 16 0.00 0.00
6:28 pm 18:28 Cloudy 46 8 39 4 76 76 S 13 20 30.06 1018 10 16 0.00 0.00
6:52 pm 18:52 Cloudy 45 7.2 40 4.4 83 83 SSE 17 28 30.03 1017 10 16 0.00 0.00
7:52 pm 19:52 Cloudy 44 6.7 41 5 89 89 SE 10 17 30.03 1017 10 16 0.00 0.00
8:25 pm 20:25 Cloudy 43 6.1 41 5 93 93 SE 12 19 30.03 1017 8 13 0.00 0.00
8:52 pm 20:52 Cloudy with Light Rain 43 6.1 41 5 93 93 SSE 9 15 30.01 1016 6 10 0.00 0.00
9:52 pm 21:52 Cloudy with Mist and Fog 43 6.1 41 5 93 93 SSE 14 22 29.99 1016 5 8 0.00 0.00
10:12 pm 22:12 Cloudy with Light Rain 43 6 41 5 93 93 SSE 13 20 30.00 1016 5 8 0.00 0.00
10:19 pm 22:19 Cloudy with Light Rain 43 6.1 41 5 93 93 SSE 13 20 30.00 1016 6 10 0.00 0.00
10:52 pm 22:52 Cloudy 43 6.1 41 5 93 93 SSE 10 17 29.98 1015 9 14 0.00 0.00
11:52 pm 23:52 Cloudy with Mist and Fog 43 6.1 41 5 93 93 SSE 12 19 29.96 1015 6 10 0.00 0.00

Powered by AerisWeather